TimeCST,TemperatureF,Dew PointF,Humidity,Sea Level PressureIn,VisibilityMPH,Wind Direction,Wind SpeedMPH,Gust SpeedMPH,PrecipitationIn,Events,Conditions,WindDirDegrees,DateUTC
12:54 AM,27.0,21.0,78,30.15,10.0,WNW,15.0,20.7,N/A,,Overcast,300,2013-01-03 06:54:00
1:54 AM,26.1,19.0,75,30.16,10.0,NW,11.5,-,N/A,,Overcast,310,2013-01-03 07:54:00
2:31 AM,24.8,19.4,80,30.12,10.0,WNW,5.8,-,N/A,,Overcast,290,2013-01-03 08:31:00
2:41 AM,24.8,19.4,80,30.13,10.0,WNW,5.8,-,N/A,,Overcast,290,2013-01-03 08:41:00
2:54 AM,25.0,19.0,78,30.17,10.0,WNW,9.2,-,N/A,,Overcast,300,2013-01-03 08:54:00
3:54 AM,24.1,19.0,81,30.18,10.0,NNW,11.5,-,N/A,,Overcast,330,2013-01-03 09:54:00
4:54 AM,16.0,9.0,74,30.21,10.0,NW,13.8,23.0,N/A,,Mostly Cloudy,310,2013-01-03 10:54:00
5:54 AM,12.9,6.1,74,30.25,10.0,WNW,13.8,-,N/A,,Clear,300,2013-01-03 11:54:00
6:54 AM,12.0,6.1,77,30.27,10.0,WNW,9.2,19.6,N/A,,Partly Cloudy,290,2013-01-03 12:54:00
7:54 AM,12.0,6.1,77,30.29,10.0,West,11.5,-,N/A,,Overcast,280,2013-01-03 13:54:00
8:54 AM,12.0,6.1,77,30.30,10.0,WNW,11.5,-,N/A,,Overcast,290,2013-01-03 14:54:00
9:54 AM,12.9,7.0,77,30.32,10.0,WNW,5.8,-,N/A,,Overcast,300,2013-01-03 15:54:00
10:54 AM,14.0,8.1,77,30.32,10.0,WNW,10.4,-,N/A,,Overcast,300,2013-01-03 16:54:00
11:54 AM,15.1,7.0,70,30.32,10.0,WNW,10.4,-,N/A,,Overcast,300,2013-01-03 17:54:00
12:54 PM,15.1,8.1,74,30.31,10.0,West,10.4,-,N/A,,Overcast,280,2013-01-03 18:54:00
1:54 PM,14.0,7.0,74,30.31,10.0,West,11.5,-,N/A,,Overcast,280,2013-01-03 19:54:00
2:54 PM,15.1,7.0,70,30.32,10.0,WNW,8.1,-,N/A,,Clear,290,2013-01-03 20:54:00
3:54 PM,14.0,6.1,71,30.35,10.0,West,6.9,-,N/A,,Clear,280,2013-01-03 21:54:00
4:54 PM,12.9,6.1,74,30.37,10.0,West,6.9,-,N/A,,Clear,280,2013-01-03 22:54:00
5:54 PM,10.9,5.0,77,30.38,10.0,West,8.1,-,N/A,,Clear,270,2013-01-03 23:54:00
6:54 PM,10.9,6.1,81,30.38,10.0,West,10.4,-,N/A,,Clear,280,2013-01-04 00:54:00
7:54 PM,9.0,3.9,80,30.37,10.0,WSW,8.1,-,N/A,,Clear,240,2013-01-04 01:54:00
8:54 PM,9.0,3.9,80,30.35,10.0,WSW,9.2,-,N/A,,Clear,250,2013-01-04 02:54:00
9:54 PM,9.0,5.0,84,30.35,10.0,WSW,10.4,-,N/A,,Clear,240,2013-01-04 03:54:00
10:54 PM,9.0,5.0,84,30.32,10.0,WSW,8.1,-,N/A,,Clear,250,2013-01-04 04:54:00
11:54 PM,9.0,5.0,84,30.29,10.0,WSW,9.2,-,N/A,,Clear,240,2013-01-04 05:54:00